Edinburgh Airport, United Kingdom

4:59 PM BST on March 30, 2017 (GMT +0100)
Edinburgh Airport

Weather History for EGPH - February, 2013

Change the Weather History Date:

Sunday, February 17, 2013

  Actual Average Record
Temperature  
Mean Temperature 40 °F -  
Max Temperature 50 °F 46 °F 55 °F (1998)
Min Temperature 30 °F 34 °F 21 °F (2003)
Degree Days  
Heating Degree Days 25    
Moisture  
Dew Point 36 °F    
Average Humidity 80    
Maximum Humidity 100    
Minimum Humidity 58    
Precipitation  
Precipitation 0.00 in 0.06 in - ()
Sea Level Pressure  
Sea Level Pressure 30.09 in    
Wind  
Wind Speed 3 mph ()    
Max Wind Speed 10 mph    
Max Gust Speed -    
Visibility 6.2 miles    
Events      
Averages and records for this station are not official NWS values.
T = Trace of Precipitation, MM = Missing Value Source: Averaged Metar Reports

Daily Weather History Graph

Daily Weather History Graph

Search for Another Location

Airport or City:

Trip Planner

Search our weather history database for the weather conditions in past years. The results will help you decide how hot, cold, wet, or windy it might be!

Date:

Astronomy

Feb. 17, 2013 Rise Set
Actual Time 7:33 AM GMT 5:22 PM GMT
Civil Twilight 6:55 AM GMT 6:00 PM GMT
Nautical Twilight 6:11 AM GMT 6:43 PM GMT
Astronomical Twilight 5:29 AM GMT 7:26 PM GMT
Moon 9:52 AM GMT (2/17) 1:26 AM GMT (2/17)
Length of Visible Light 11h 05m
Length of Day
9h 48m
Waxing Crescent, 47% of the Moon is Illuminated
Feb 17
Waxing Crescent
Feb 17
First Quarter
Feb 25
Full
Mar 4
Last Quarter
Mar 11
New

Hourly Weather History & Observations

Time (GMT) Temp. Windchill Dew Point Humidity Pressure Visibility Wind Dir Wind Speed Gust Speed Precip Events Conditions
12:20 AM 42.8 °F - 41.0 °F 93% 30.12 in 6.2 mi Variable 2.3 mph - N/A   Mostly Cloudy
12:50 AM 42.8 °F - 41.0 °F 93% 30.12 in 6.2 mi Calm Calm - N/A   Mostly Cloudy
1:20 AM 44.6 °F - 41.0 °F 87% 30.12 in 6.2 mi Calm Calm - N/A   Mostly Cloudy
1:50 AM 42.8 °F - 41.0 °F 93% 30.09 in 6.2 mi Calm Calm - N/A   Overcast
2:20 AM 42.8 °F - 41.0 °F 93% 30.09 in 6.2 mi ENE 2.3 mph - N/A   Overcast
2:50 AM 42.8 °F 41.1 °F 41.0 °F 93% 30.09 in 6.2 mi Variable 3.5 mph - N/A   Overcast
3:20 AM 44.6 °F 42.2 °F 41.0 °F 87% 30.09 in 6.2 mi SSW 4.6 mph - N/A   Overcast
3:50 AM 44.6 °F 42.2 °F 39.2 °F 81% 30.09 in 6.2 mi South 4.6 mph - N/A   Overcast
4:20 AM 44.6 °F 43.1 °F 39.2 °F 81% 30.09 in 6.2 mi SSW 3.5 mph - N/A   Mostly Cloudy
4:50 AM 44.6 °F - 39.2 °F 81% 30.09 in 6.2 mi SE 2.3 mph - N/A   Overcast
5:20 AM 44.6 °F - 39.2 °F 81% 30.09 in 6.2 mi Calm Calm - N/A   Overcast
5:50 AM 42.8 °F - 39.2 °F 87% 30.09 in 6.2 mi Calm Calm - N/A   Overcast
6:20 AM 42.8 °F 41.1 °F 39.2 °F 87% 30.09 in 6.2 mi NE 3.5 mph - N/A   Mostly Cloudy
6:50 AM 42.8 °F 40.1 °F 39.2 °F 87% 30.09 in 6.2 mi South 4.6 mph - N/A   Mostly Cloudy
7:20 AM 42.8 °F 41.1 °F 39.2 °F 87% 30.09 in 6.2 mi Variable 3.5 mph - N/A   Mostly Cloudy
7:50 AM 41.0 °F 39.0 °F 37.4 °F 87% 30.09 in 6.2 mi Variable 3.5 mph - N/A   Scattered Clouds
8:20 AM 39.2 °F - 37.4 °F 93% 30.09 in 6.2 mi Calm Calm - N/A   Scattered Clouds
8:50 AM 41.0 °F 38.0 °F 37.4 °F 87% 30.09 in 6.2 mi SE 4.6 mph - N/A   Partly Cloudy
9:20 AM 44.6 °F 43.1 °F 39.2 °F 81% 30.09 in 6.2 mi Variable 3.5 mph - N/A   Partly Cloudy
9:50 AM 44.6 °F 43.1 °F 37.4 °F 76% 30.09 in 6.2 mi Variable 3.5 mph - N/A   Partly Cloudy
10:20 AM 46.4 °F 44.3 °F 37.4 °F 71% 30.09 in 6.2 mi SSE 4.6 mph - N/A   Partly Cloudy
10:50 AM 46.4 °F 45.2 °F 37.4 °F 71% 30.09 in 6.2 mi Variable 3.5 mph - N/A   Partly Cloudy
11:20 AM 48.2 °F - 37.4 °F 66% 30.09 in 6.2 mi Variable 3.5 mph - N/A   Scattered Clouds
11:50 AM 48.2 °F - 35.6 °F 62% 30.09 in 6.2 mi SSW 5.8 mph - N/A   Partly Cloudy
12:20 PM 50.0 °F - 35.6 °F 58% 30.09 in 6.2 mi South 8.1 mph - N/A   Partly Cloudy
12:50 PM 50.0 °F - 35.6 °F 58% 30.09 in 6.2 mi South 10.4 mph - N/A   Partly Cloudy
1:20 PM 50.0 °F - 35.6 °F 58% 30.09 in 6.2 mi South 8.1 mph - N/A   Partly Cloudy
1:50 PM 48.2 °F - 35.6 °F 62% 30.06 in - SSW 8.1 mph - N/A   Clear
2:20 PM 48.2 °F - 35.6 °F 62% 30.06 in - South 8.1 mph - N/A   Clear
2:50 PM 48.2 °F - 35.6 °F 62% 30.06 in - SSW 6.9 mph - N/A   Clear
3:20 PM 48.2 °F - 35.6 °F 62% 30.06 in - South 8.1 mph - N/A   Clear
3:50 PM 48.2 °F - 35.6 °F 62% 30.06 in - South 5.8 mph - N/A   Clear
4:20 PM 46.4 °F 42.9 °F 33.8 °F 62% 30.06 in - SSW 6.9 mph - N/A   Clear
4:50 PM 44.6 °F 41.4 °F 33.8 °F 66% 30.06 in - SSW 5.8 mph - N/A   Clear
5:20 PM 44.6 °F 43.1 °F 33.8 °F 66% 30.06 in - Variable 3.5 mph - N/A   Clear
5:50 PM 42.8 °F - 33.8 °F 70% 30.06 in - Variable 2.3 mph - N/A   Clear
6:20 PM 39.2 °F - 32.0 °F 75% 30.06 in - Variable 2.3 mph - N/A   Clear
6:50 PM 39.2 °F - 33.8 °F 81% 30.09 in - Calm Calm - N/A   Clear
7:20 PM 37.4 °F - 32.0 °F 81% 30.09 in - Variable 2.3 mph - N/A   Clear
7:50 PM 35.6 °F - 32.0 °F 87% 30.09 in - Calm Calm - N/A   Clear
8:20 PM 33.8 °F - 32.0 °F 93% 30.09 in - West 2.3 mph - N/A   Clear
8:50 PM 32.0 °F - 30.2 °F 93% 30.09 in - Calm Calm - N/A   Clear
9:20 PM 32.0 °F - 30.2 °F 93% 30.09 in - West 2.3 mph - N/A   Clear
9:50 PM 32.0 °F - 32.0 °F 100% 30.09 in - WSW 2.3 mph - N/A   Clear
10:20 PM 30.2 °F - 30.2 °F 100% 30.09 in - Calm Calm - N/A   Clear
10:50 PM 32.0 °F - 30.2 °F 93% 30.09 in - Calm Calm - N/A   Clear
11:20 PM 30.2 °F - 30.2 °F 100% 30.09 in - Variable 2.3 mph - N/A   Clear
11:50 PM 30.2 °F - 28.4 °F 93% 30.09 in - West 2.3 mph - N/A   Clear